2011/07/21,00:00:02,00018550,00006620,00000030, 28.3
2011/07/21,00:00:07,00018555,00006621,00000029, 28.4
2011/07/21,00:00:12,00018560,00006623,00000029, 28.2
2011/07/21,00:00:17,00018565,00006623,00000028, 28.6
2011/07/21,00:00:22,00018570,00006626,00000030, 28.2
2011/07/21,00:00:27,00018575,00006627,00000029, 28.6
2011/07/21,00:00:32,00018580,00006627,00000026, 28.3
2011/07/21,00:00:37,00018585,00006627,00000023, 28.1
2011/07/21,00:00:42,00018590,00006629,00000022, 28.2
2011/07/21,00:00:47,00018595,00006630,00000021, 28.4
2011/07/21,00:00:52,00018600,00006630,00000020, 28.7
2011/07/21,00:00:57,00018605,00006631,00000018, 28.4
2011/07/21,00:01:02,00018610,00006631,00000017, 28.3
2011/07/21,00:01:07,00018615,00006632,00000017, 28.3
2011/07/21,00:01:12,00018620,00006635,00000017, 28.4
2011/07/21,00:01:17,00018625,00006635,00000017, 28.3
2011/07/21,00:01:22,00018630,00006635,00000016, 28.6
2011/07/21,00:01:27,00018635,00006636,00000015, 28.2
2011/07/21,00:01:32,00018640,00006640,00000015, 28.3
2011/07/21,00:01:37,00018645,00006643,00000017, 28.6
2011/07/21,00:01:42,00018650,00006644,00000015, 28.3
2011/07/21,00:01:47,00018655,00006647,00000016, 28.2
2011/07/21,00:01:52,00018660,00006652,00000016, 28.4
2011/07/21,00:01:57,00018665,00006657,00000018, 28.3
2011/07/21,00:02:02,00018670,00006658,00000019, 28.2
2011/07/21,00:02:07,00018675,00006661,00000020, 28.3
2011/07/21,00:02:12,00018680,00006662,00000019, 28.4
2011/07/21,00:02:17,00018685,00006663,00000020, 28.2
2011/07/21,00:02:22,00018690,00006665,00000019, 28.7
2011/07/21,00:02:27,00018695,00006666,00000019, 28.4
2011/07/21,00:02:32,00018700,00006666,00000019, 28.2
2011/07/21,00:02:37,00018705,00006671,00000022, 28.1
2011/07/21,00:02:42,00018710,00006673,00000022, 28.3
2011/07/21,00:02:47,00018715,00006674,00000022, 28.2
2011/07/21,00:02:52,00018720,00006675,00000022, 28.4
2011/07/21,00:02:57,00018725,00006676,00000022, 28.4
2011/07/21,00:03:02,00018730,00006676,00000022, 28.3
2011/07/21,00:03:07,00018735,00006680,00000024, 28.3
2011/07/21,00:03:12,00018740,00006681,00000023, 28.3
2011/07/21,00:03:17,00018745,00006683,00000024, 28.3
2011/07/21,00:03:22,00018750,00006684,00000024, 28.4
2011/07/21,00:03:27,00018755,00006688,00000026, 28.4
2011/07/21,00:03:32,00018760,00006689,00000024, 28.3
2011/07/21,00:03:37,00018765,00006691,00000024, 28.3
2011/07/21,00:03:42,00018770,00006693,00000024, 28.2
2011/07/21,00:03:47,00018775,00006695,00000024, 28.3
2011/07/21,00:03:52,00018780,00006698,00000023, 28.4
2011/07/21,00:03:57,00018785,00006701,00000022, 28.3
2011/07/21,00:04:02,00018790,00006702,00000022, 28.2
2011/07/21,00:04:07,00018795,00006704,00000021, 28.3
2011/07/21,00:04:12,00018800,00006708,00000023, 28.4
2011/07/21,00:04:17,00018805,00006711,00000024, 28.4
2011/07/21,00:04:22,00018810,00006713,00000024, 28.2
2011/07/21,00:04:27,00018815,00006713,00000023, 28.4
2011/07/21,00:04:32,00018820,00006715,00000024, 28.3
2011/07/21,00:04:37,00018825,00006715,00000022, 28.2
2011/07/21,00:04:42,00018830,00006716,00000021, 28.4
2011/07/21,00:04:47,00018835,00006719,00000022, 28.7
2011/07/21,00:04:52,00018840,00006719,00000022, 28.3
2011/07/21,00:04:57,00018845,00006721,00000022, 28.3
2011/07/21,00:05:02,00018850,00006724,00000024, 28.3
2011/07/21,00:05:07,00018855,00006727,00000023, 28.4
2011/07/21,00:05:12,00018860,00006729,00000024, 28.2
2011/07/21,00:05:17,00018865,00006730,00000023, 28.2
2011/07/21,00:05:22,00018870,00006731,00000023, 28.2
2011/07/21,00:05:27,00018875,00006732,00000022, 28.2
2011/07/21,00:05:32,00018880,00006732,00000021, 28.2
2011/07/21,00:05:37,00018885,00006732,00000020, 28.6
2011/07/21,00:05:42,00018890,00006733,00000020, 28.3
2011/07/21,00:05:47,00018895,00006733,00000019, 28.3
2011/07/21,00:05:52,00018900,00006736,00000019, 28.6
2011/07/21,00:05:57,00018905,00006736,00000017, 28.3
2011/07/21,00:06:02,00018910,00006739,00000018, 28.2
2011/07/21,00:06:07,00018915,00006741,00000018, 28.4
2011/07/21,00:06:12,00018920,00006741,00000016, 28.1
2011/07/21,00:06:17,00018925,00006746,00000017, 28.4
2011/07/21,00:06:22,00018930,00006748,00000017, 28.2
2011/07/21,00:06:27,00018935,00006749,00000018, 28.4
2011/07/21,00:06:32,00018940,00006751,00000018, 28.1
2011/07/21,00:06:37,00018945,00006751,00000018, 28.6
2011/07/21,00:06:42,00018950,00006753,00000018, 28.2
2011/07/21,00:06:47,00018955,00006756,00000018, 28.2
2011/07/21,00:06:52,00018960,00006760,00000020, 28.3
2011/07/21,00:06:57,00018965,00006762,00000020, 28.6
2011/07/21,00:07:02,00018970,00006765,00000020, 28.4
2011/07/21,00:07:07,00018975,00006768,00000020, 28.7
2011/07/21,00:07:12,00018980,00006768,00000019, 28.3
2011/07/21,00:07:17,00018985,00006769,00000019, 28.3
2011/07/21,00:07:22,00018990,00006772,00000020, 28.3
2011/07/21,00:07:27,00018995,00006775,00000021, 28.3
2011/07/21,00:07:32,00019000,00006778,00000023, 28.3
2011/07/21,00:07:37,00019005,00006781,00000024, 28.4
2011/07/21,00:07:42,00019010,00006783,00000025, 28.3
2011/07/21,00:07:47,00019015,00006786,00000026, 28.2
2011/07/21,00:07:52,00019020,00006789,00000026, 28.1
2011/07/21,00:07:57,00019025,00006793,00000028, 28.3
2011/07/21,00:08:02,00019030,00006795,00000027, 28.6
2011/07/21,00:08:07,00019035,00006797,00000028, 28.4
2011/07/21,00:08:12,00019040,00006799,00000029, 28.3
2011/07/21,00:08:17,00019045,00006799,00000026, 28.3
2011/07/21,00:08:22,00019050,00006801,00000026, 28.4
2011/07/21,00:08:27,00019055,00006802,00000026, 28.6
2011/07/21,00:08:32,00019060,00006805,00000027, 28.3
2011/07/21,00:08:37,00019065,00006806,00000027, 28.2
2011/07/21,00:08:42,00019070,00006809,00000028, 28.3
2011/07/21,00:08:47,00019075,00006812,00000028, 28.3
2011/07/21,00:08:52,00019080,00006814,00000027, 28.2
2011/07/21,00:08:57,00019085,00006814,00000026, 28.3
2011/07/21,00:09:02,00019090,00006816,00000025, 28.3
2011/07/21,00:09:07,00019095,00006817,00000024, 28.4
2011/07/21,00:09:12,00019100,00006818,00000025, 28.2
2011/07/21,00:09:17,00019105,00006819,00000025, 28.4
2011/07/21,00:09:22,00019110,00006820,00000024, 28.7
2011/07/21,00:09:27,00019115,00006820,00000022, 28.2
2011/07/21,00:09:32,00019120,00006822,00000021, 28.0
2011/07/21,00:09:37,00019125,00006823,00000021, 28.3
2011/07/21,00:09:42,00019130,00006823,00000020, 28.1
2011/07/21,00:09:47,00019135,00006826,00000020, 28.2
2011/07/21,00:09:52,00019140,00006828,00000019, 28.3
2011/07/21,00:09:57,00019145,00006829,00000018, 28.3
2011/07/21,00:10:02,00019150,00006830,00000018, 28.2
2011/07/21,00:10:07,00019155,00006833,00000018, 28.2
2011/07/21,00:10:12,00019160,00006836,00000018, 28.3
2011/07/21,00:10:17,00019165,00006838,00000019, 28.6
2011/07/21,00:10:22,00019170,00006838,00000018, 28.1
2011/07/21,00:10:27,00019175,00006839,00000018, 28.6
2011/07/21,00:10:32,00019180,00006842,00000018, 28.4
2011/07/21,00:10:37,00019185,00006843,00000018, 28.2
2011/07/21,00:10:42,00019190,00006845,00000018, 28.6
2011/07/21,00:10:47,00019195,00006845,00000016, 28.2
2011/07/21,00:10:52,00019200,00006847,00000016, 28.6
2011/07/21,00:10:57,00019205,00006848,00000017, 28.2
2011/07/21,00:11:02,00019210,00006848,00000016, 28.3
2011/07/21,00:11:07,00019215,00006850,00000016, 28.1
2011/07/21,00:11:12,00019220,00006853,00000017, 28.2
2011/07/21,00:11:17,00019225,00006855,00000018, 28.4
2011/07/21,00:11:22,00019230,00006858,00000019, 28.4
2011/07/21,00:11:27,00019235,00006858,00000019, 28.2
2011/07/21,00:11:32,00019240,00006862,00000020, 28.3
2011/07/21,00:11:37,00019245,00006864,00000020, 28.6
2011/07/21,00:11:42,00019250,00006864,00000020, 28.1
2011/07/21,00:11:47,00019255,00006866,00000020, 28.1
2011/07/21,00:11:52,00019260,00006866,00000019, 28.4
2011/07/21,00:11:57,00019265,00006868,00000019, 28.4
2011/07/21,00:12:02,00019270,00006871,00000020, 28.3
2011/07/21,00:12:07,00019275,00006874,00000020, 28.6
2011/07/21,00:12:12,00019280,00006875,00000019, 28.4
2011/07/21,00:12:17,00019285,00006877,00000019, 28.2
2011/07/21,00:12:22,00019290,00006879,00000020, 28.4
2011/07/21,00:12:27,00019295,00006882,00000021, 28.2
2011/07/21,00:12:32,00019300,00006882,00000020, 28.6
2011/07/21,00:12:37,00019305,00006883,00000020, 28.1
2011/07/21,00:12:42,00019310,00006883,00000019, 28.3
2011/07/21,00:12:47,00019315,00006883,00000019, 28.3
2011/07/21,00:12:52,00019320,00006883,00000018, 28.2
2011/07/21,00:12:57,00019325,00006884,00000018, 28.2
2011/07/21,00:13:02,00019330,00006887,00000019, 28.4
2011/07/21,00:13:07,00019335,00006889,00000019, 28.3
2011/07/21,00:13:12,00019340,00006889,00000018, 28.1
2011/07/21,00:13:17,00019345,00006891,00000018, 28.3
2011/07/21,00:13:22,00019350,00006894,00000018, 28.1
2011/07/21,00:13:27,00019355,00006895,00000018, 28.1
2011/07/21,00:13:32,00019360,00006898,00000018, 28.3
2011/07/21,00:13:37,00019365,00006901,00000018, 28.2
2011/07/21,00:13:42,00019370,00006905,00000020, 28.2
2011/07/21,00:13:47,00019375,00006907,00000020, 28.3
2011/07/21,00:13:52,00019380,00006907,00000020, 28.6
2011/07/21,00:13:57,00019385,00006908,00000020, 28.3
2011/07/21,00:14:02,00019390,00006909,00000019, 28.3
2011/07/21,00:14:07,00019395,00006910,00000018, 28.2
2011/07/21,00:14:12,00019400,00006911,00000018, 28.4
2011/07/21,00:14:17,00019405,00006912,00000017, 28.4
2011/07/21,00:14:22,00019410,00006912,00000017, 28.4
2011/07/21,00:14:27,00019415,00006912,00000015, 28.2
2011/07/21,00:14:32,00019420,00006915,00000016, 28.3
2011/07/21,00:14:37,00019425,00006917,00000017, 28.3
2011/07/21,00:14:42,00019430,00006922,00000019, 28.3
2011/07/21,00:14:47,00019435,00006923,00000020, 28.3
2011/07/21,00:14:52,00019440,00006925,00000021, 28.1
2011/07/21,00:14:57,00019445,00006926,00000021, 28.3
2011/07/21,00:15:02,00019450,00006929,00000020, 28.3
2011/07/21,00:15:07,00019455,00006930,00000020, 28.4
2011/07/21,00:15:12,00019460,00006931,00000021, 28.2
2011/07/21,00:15:17,00019465,00006932,00000020, 28.1
2011/07/21,00:15:22,00019470,00006932,00000019, 28.3
2011/07/21,00:15:27,00019475,00006932,00000018, 28.2
2011/07/21,00:15:32,00019480,00006934,00000018, 28.3
2011/07/21,00:15:37,00019485,00006936,00000017, 28.2
2011/07/21,00:15:42,00019490,00006937,00000016, 28.4
2011/07/21,00:15:47,00019495,00006939,00000016, 28.3
2011/07/21,00:15:52,00019500,00006940,00000016, 28.2
2011/07/21,00:15:57,00019505,00006943,00000017, 28.6
2011/07/21,00:16:02,00019510,00006945,00000018, 28.3
2011/07/21,00:16:07,00019515,00006947,00000018, 28.0
2011/07/21,00:16:12,00019520,00006950,00000019, 28.4
2011/07/21,00:16:17,00019525,00006951,00000019, 28.3
2011/07/21,00:16:22,00019530,00006952,00000020, 28.3
2011/07/21,00:16:27,00019535,00006954,00000021, 28.2
2011/07/21,00:16:32,00019540,00006958,00000021, 28.3
2011/07/21,00:16:37,00019545,00006958,00000020, 28.4
2011/07/21,00:16:42,00019550,00006961,00000019, 28.3
2011/07/21,00:16:47,00019555,00006963,00000020, 28.6
2011/07/21,00:16:52,00019560,00006964,00000019, 28.3
2011/07/21,00:16:57,00019565,00006968,00000021, 28.3
2011/07/21,00:17:02,00019570,00006970,00000021, 28.1
2011/07/21,00:17:07,00019575,00006972,00000021, 28.3
2011/07/21,00:17:12,00019580,00006974,00000021, 28.3
2011/07/21,00:17:17,00019585,00006976,00000022, 28.3
2011/07/21,00:17:22,00019590,00006981,00000024, 28.4
2011/07/21,00:17:27,00019595,00006983,00000025, 28.2
2011/07/21,00:17:32,00019600,00006985,00000025, 28.2
2011/07/21,00:17:37,00019605,00006985,00000024, 28.6
2011/07/21,00:17:42,00019610,00006986,00000024, 28.4
2011/07/21,00:17:47,00019615,00006988,00000024, 28.3
2011/07/21,00:17:52,00019620,00006989,00000024, 28.3
2011/07/21,00:17:57,00019625,00006989,00000023, 28.2
2011/07/21,00:18:02,00019630,00006992,00000023, 28.3
2011/07/21,00:18:07,00019635,00006993,00000023, 28.7
2011/07/21,00:18:12,00019640,00006995,00000022, 28.6
2011/07/21,00:18:17,00019645,00006997,00000022, 28.1
2011/07/21,00:18:22,00019650,00006997,00000022, 28.1
2011/07/21,00:18:27,00019655,00006999,00000022, 28.3
2011/07/21,00:18:32,00019660,00007002,00000022, 28.2
2011/07/21,00:18:37,00019665,00007003,00000022, 28.4
2011/07/21,00:18:42,00019670,00007004,00000021, 28.2
2011/07/21,00:18:47,00019675,00007004,00000020, 28.2
2011/07/21,00:18:52,00019680,00007005,00000020, 28.1
2011/07/21,00:18:57,00019685,00007007,00000019, 28.2
2011/07/21,00:19:02,00019690,00007008,00000019, 28.4
2011/07/21,00:19:07,00019695,00007010,00000019, 28.3
2011/07/21,00:19:12,00019700,00007012,00000019, 28.3
2011/07/21,00:19:17,00019705,00007016,00000020, 28.2
2011/07/21,00:19:22,00019710,00007016,00000017, 28.2
2011/07/21,00:19:27,00019715,00007016,00000016, 28.3
2011/07/21,00:19:32,00019720,00007018,00000016, 28.1
2011/07/21,00:19:37,00019725,00007019,00000017, 28.6
2011/07/21,00:19:42,00019730,00007020,00000017, 28.6
2011/07/21,00:19:47,00019735,00007020,00000016, 28.3
2011/07/21,00:19:52,00019740,00007023,00000017, 28.3
2011/07/21,00:19:57,00019745,00007024,00000017, 28.3
2011/07/21,00:20:02,00019750,00007026,00000017, 28.2
2011/07/21,00:20:07,00019755,00007029,00000018, 28.2
2011/07/21,00:20:12,00019760,00007030,00000017, 28.2
2011/07/21,00:20:17,00019765,00007033,00000018, 28.3
2011/07/21,00:20:22,00019770,00007034,00000018, 28.3
2011/07/21,00:20:27,00019775,00007036,00000018, 28.2
2011/07/21,00:20:32,00019780,00007037,00000017, 28.2
2011/07/21,00:20:37,00019785,00007040,00000018, 28.1
2011/07/21,00:20:42,00019790,00007046,00000021, 28.2
2011/07/21,00:20:47,00019795,00007047,00000021, 28.2
2011/07/21,00:20:52,00019800,00007050,00000022, 28.3
2011/07/21,00:20:57,00019805,00007051,00000022, 28.3
2011/07/21,00:21:02,00019810,00007055,00000023, 28.3
2011/07/21,00:21:07,00019815,00007056,00000023, 28.4
2011/07/21,00:21:12,00019820,00007058,00000023, 28.3
2011/07/21,00:21:17,00019825,00007061,00000022, 28.4
2011/07/21,00:21:22,00019830,00007062,00000023, 28.3
2011/07/21,00:21:27,00019835,00007065,00000024, 28.4
2011/07/21,00:21:32,00019840,00007065,00000023, 28.3
2011/07/21,00:21:37,00019845,00007066,00000023, 28.4
2011/07/21,00:21:42,00019850,00007069,00000024, 28.3
2011/07/21,00:21:47,00019855,00007072,00000026, 28.2
2011/07/21,00:21:52,00019860,00007076,00000026, 28.1
2011/07/21,00:21:57,00019865,00007079,00000027, 28.4
2011/07/21,00:22:02,00019870,00007081,00000027, 28.3
2011/07/21,00:22:07,00019875,00007082,00000026, 28.1
2011/07/21,00:22:12,00019880,00007084,00000026, 28.4
2011/07/21,00:22:17,00019885,00007086,00000026, 28.3
2011/07/21,00:22:22,00019890,00007091,00000028, 28.2
2011/07/21,00:22:27,00019895,00007093,00000028, 28.2
2011/07/21,00:22:32,00019900,00007093,00000028, 28.3
2011/07/21,00:22:37,00019905,00007094,00000027, 28.4
2011/07/21,00:22:42,00019910,00007095,00000024, 28.2
2011/07/21,00:22:47,00019915,00007097,00000025, 28.4
2011/07/21,00:22:52,00019920,00007097,00000023, 28.4
2011/07/21,00:22:57,00019925,00007098,00000023, 28.1
2011/07/21,00:23:02,00019930,00007101,00000023, 28.2
2011/07/21,00:23:07,00019935,00007102,00000023, 28.3
2011/07/21,00:23:12,00019940,00007104,00000023, 28.2
2011/07/21,00:23:17,00019945,00007106,00000022, 28.4
2011/07/21,00:23:22,00019950,00007108,00000023, 28.4
2011/07/21,00:23:27,00019955,00007109,00000022, 28.4
2011/07/21,00:23:32,00019960,00007112,00000023, 28.4
2011/07/21,00:23:37,00019965,00007115,00000024, 28.3
2011/07/21,00:23:42,00019970,00007117,00000024, 28.1
2011/07/21,00:23:47,00019975,00007120,00000024, 28.2
2011/07/21,00:23:52,00019980,00007122,00000023, 28.4
2011/07/21,00:23:57,00019985,00007124,00000022, 28.0
2011/07/21,00:24:02,00019990,00007126,00000022, 28.1
2011/07/21,00:24:07,00019995,00007128,00000023, 28.3
2011/07/21,00:24:12,00020000,00007129,00000023, 28.3
2011/07/21,00:24:17,00020005,00007131,00000022, 28.6
2011/07/21,00:24:22,00020010,00007131,00000020, 28.2
2011/07/21,00:24:27,00020015,00007134,00000020, 28.3
2011/07/21,00:24:32,00020020,00007140,00000023, 28.2
2011/07/21,00:24:37,00020025,00007142,00000024, 28.4
2011/07/21,00:24:42,00020030,00007145,00000025, 28.2
2011/07/21,00:24:47,00020035,00007146,00000024, 28.4
2011/07/21,00:24:52,00020040,00007148,00000025, 28.3
2011/07/21,00:24:57,00020045,00007148,00000025, 28.4
2011/07/21,00:25:02,00020050,00007151,00000025, 28.2
2011/07/21,00:25:07,00020055,00007156,00000027, 28.1
2011/07/21,00:25:12,00020060,00007156,00000026, 28.2
2011/07/21,00:25:17,00020065,00007161,00000027, 28.2
2011/07/21,00:25:22,00020070,00007162,00000027, 28.4
2011/07/21,00:25:27,00020075,00007162,00000026, 28.4
2011/07/21,00:25:32,00020080,00007164,00000026, 28.2
2011/07/21,00:25:37,00020085,00007165,00000025, 28.2
2011/07/21,00:25:42,00020090,00007165,00000024, 28.6
2011/07/21,00:25:47,00020095,00007168,00000024, 28.1
2011/07/21,00:25:52,00020100,00007168,00000023, 28.3
2011/07/21,00:25:57,00020105,00007169,00000022, 28.3
2011/07/21,00:26:02,00020110,00007173,00000023, 28.3
2011/07/21,00:26:07,00020115,00007178,00000025, 28.3
2011/07/21,00:26:12,00020120,00007181,00000026, 28.2
2011/07/21,00:26:17,00020125,00007184,00000026, 28.2
2011/07/21,00:26:22,00020130,00007185,00000027, 28.3
2011/07/21,00:26:27,00020135,00007186,00000026, 28.4
2011/07/21,00:26:32,00020140,00007189,00000024, 28.3
2011/07/21,00:26:37,00020145,00007189,00000023, 28.1
2011/07/21,00:26:42,00020150,00007191,00000023, 28.3
2011/07/21,00:26:47,00020155,00007194,00000024, 28.3
2011/07/21,00:26:52,00020160,00007195,00000023, 28.6
2011/07/21,00:26:57,00020165,00007197,00000024, 28.6
2011/07/21,00:27:02,00020170,00007198,00000023, 28.3
2011/07/21,00:27:07,00020175,00007203,00000023, 28.2
2011/07/21,00:27:12,00020180,00007205,00000024, 28.1
2011/07/21,00:27:17,00020185,00007206,00000022, 28.3
2011/07/21,00:27:22,00020190,00007209,00000023, 28.6
2011/07/21,00:27:27,00020195,00007211,00000024, 28.4
2011/07/21,00:27:32,00020200,00007213,00000025, 28.1
2011/07/21,00:27:37,00020205,00007215,00000025, 28.3
2011/07/21,00:27:42,00020210,00007217,00000026, 28.1
2011/07/21,00:27:47,00020215,00007218,00000025, 28.6
2011/07/21,00:27:52,00020220,00007219,00000025, 28.3
2011/07/21,00:27:57,00020225,00007220,00000025, 28.4
2011/07/21,00:28:02,00020230,00007222,00000024, 28.3
2011/07/21,00:28:07,00020235,00007223,00000022, 28.1
2011/07/21,00:28:12,00020240,00007223,00000021, 28.6
2011/07/21,00:28:17,00020245,00007224,00000020, 28.4
2011/07/21,00:28:22,00020250,00007228,00000021, 28.3
2011/07/21,00:28:27,00020255,00007229,00000021, 28.4
2011/07/21,00:28:32,00020260,00007229,00000020, 28.1
2011/07/21,00:28:37,00020265,00007232,00000021, 28.4
2011/07/21,00:28:42,00020270,00007233,00000021, 28.3
2011/07/21,00:28:47,00020275,00007235,00000020, 28.3
2011/07/21,00:28:52,00020280,00007237,00000021, 28.2
2011/07/21,00:28:57,00020285,00007239,00000021, 28.1
2011/07/21,00:29:02,00020290,00007239,00000021, 28.1
2011/07/21,00:29:07,00020295,00007240,00000018, 28.4
2011/07/21,00:29:12,00020300,00007241,00000018, 28.3
2011/07/21,00:29:17,00020305,00007242,00000018, 28.3
2011/07/21,00:29:22,00020310,00007244,00000017, 28.4
2011/07/21,00:29:27,00020315,00007245,00000017, 28.2
2011/07/21,00:29:32,00020320,00007247,00000017, 28.2
2011/07/21,00:29:37,00020325,00007250,00000017, 28.4
2011/07/21,00:29:42,00020330,00007254,00000018, 28.6
2011/07/21,00:29:47,00020335,00007257,00000019, 28.2
2011/07/21,00:29:52,00020340,00007259,00000020, 28.2
2011/07/21,00:29:57,00020345,00007259,00000019, 28.3
2011/07/21,00:30:02,00020350,00007262,00000020, 28.3
2011/07/21,00:30:07,00020355,00007266,00000021, 28.6
2011/07/21,00:30:12,00020360,00007272,00000024, 28.3
2011/07/21,00:30:17,00020365,00007278,00000027, 28.7
2011/07/21,00:30:22,00020370,00007280,00000026, 28.4
2011/07/21,00:30:27,00020375,00007284,00000027, 28.1
2011/07/21,00:30:32,00020380,00007285,00000028, 28.2
2011/07/21,00:30:37,00020385,00007288,00000028, 28.2
2011/07/21,00:30:42,00020390,00007291,00000029, 28.4
2011/07/21,00:30:47,00020395,00007294,00000029, 28.2
2011/07/21,00:30:52,00020400,00007296,00000029, 28.2
2011/07/21,00:30:57,00020405,00007297,00000029, 28.4
2011/07/21,00:31:02,00020410,00007299,00000030, 28.1
2011/07/21,00:31:07,00020415,00007300,00000030, 28.1
2011/07/21,00:31:12,00020420,00007302,00000030, 28.1
2011/07/21,00:31:17,00020425,00007306,00000032, 28.2
2011/07/21,00:31:22,00020430,00007307,00000031, 28.2
2011/07/21,00:31:27,00020435,00007308,00000031, 28.4
2011/07/21,00:31:32,00020440,00007308,00000030, 28.2
2011/07/21,00:31:37,00020445,00007309,00000029, 28.3
2011/07/21,00:31:42,00020450,00007312,00000029, 28.3
2011/07/21,00:31:47,00020455,00007316,00000029, 28.4
2011/07/21,00:31:52,00020460,00007318,00000029, 28.1
2011/07/21,00:31:57,00020465,00007318,00000029, 28.3
2011/07/21,00:32:02,00020470,00007318,00000028, 28.2
2011/07/21,00:32:07,00020475,00007320,00000027, 28.3
2011/07/21,00:32:12,00020480,00007320,00000024, 28.2
2011/07/21,00:32:17,00020485,00007325,00000023, 28.4
2011/07/21,00:32:22,00020490,00007326,00000023, 28.2
2011/07/21,00:32:27,00020495,00007327,00000021, 28.3
2011/07/21,00:32:32,00020500,00007327,00000021, 28.3
2011/07/21,00:32:37,00020505,00007331,00000021, 28.3
2011/07/21,00:32:42,00020510,00007331,00000020, 28.3
2011/07/21,00:32:47,00020515,00007333,00000019, 28.3
2011/07/21,00:32:52,00020520,00007335,00000019, 28.4
2011/07/21,00:32:57,00020525,00007337,00000020, 28.3
2011/07/21,00:33:02,00020530,00007340,00000020, 28.2
2011/07/21,00:33:07,00020535,00007343,00000021, 28.3
2011/07/21,00:33:12,00020540,00007344,00000021, 28.2
2011/07/21,00:33:17,00020545,00007346,00000020, 28.3
2011/07/21,00:33:22,00020550,00007348,00000020, 28.4
2011/07/21,00:33:27,00020555,00007350,00000021, 28.6
2011/07/21,00:33:32,00020560,00007354,00000023, 28.2
2011/07/21,00:33:37,00020565,00007355,00000023, 28.2
2011/07/21,00:33:42,00020570,00007359,00000023, 28.4
2011/07/21,00:33:47,00020575,00007360,00000022, 28.3
2011/07/21,00:33:52,00020580,00007362,00000022, 28.6
2011/07/21,00:33:57,00020585,00007364,00000023, 28.6
2011/07/21,00:34:02,00020590,00007369,00000025, 28.2
2011/07/21,00:34:07,00020595,00007372,00000026, 28.3
2011/07/21,00:34:12,00020600,00007373,00000026, 28.3
2011/07/21,00:34:17,00020605,00007374,00000024, 28.4
2011/07/21,00:34:22,00020610,00007374,00000024, 28.4
2011/07/21,00:34:27,00020615,00007376,00000024, 28.3
2011/07/21,00:34:32,00020620,00007379,00000026, 28.6
2011/07/21,00:34:37,00020625,00007381,00000025, 28.3
2011/07/21,00:34:42,00020630,00007381,00000025, 28.2
2011/07/21,00:34:47,00020635,00007382,00000024, 28.6
2011/07/21,00:34:52,00020640,00007383,00000024, 28.1
2011/07/21,00:34:57,00020645,00007385,00000024, 28.1
2011/07/21,00:35:02,00020650,00007388,00000024, 28.3
2011/07/21,00:35:07,00020655,00007389,00000023, 28.6
2011/07/21,00:35:12,00020660,00007390,00000023, 28.3
2011/07/21,00:35:17,00020665,00007391,00000022, 28.2
2011/07/21,00:35:22,00020670,00007392,00000022, 28.2
2011/07/21,00:35:27,00020675,00007396,00000023, 28.3
2011/07/21,00:35:32,00020680,00007396,00000021, 28.3
2011/07/21,00:35:37,00020685,00007398,00000021, 28.3
2011/07/21,00:35:42,00020690,00007402,00000021, 28.2
2011/07/21,00:35:47,00020695,00007404,00000022, 28.6
2011/07/21,00:35:52,00020700,00007408,00000023, 28.2
2011/07/21,00:35:57,00020705,00007410,00000023, 28.3
2011/07/21,00:36:02,00020710,00007414,00000022, 28.4
2011/07/21,00:36:07,00020715,00007416,00000022, 28.4
2011/07/21,00:36:12,00020720,00007419,00000023, 28.6
2011/07/21,00:36:17,00020725,00007421,00000023, 28.6
2011/07/21,00:36:22,00020730,00007422,00000024, 28.2
2011/07/21,00:36:27,00020735,00007424,00000024, 28.0
2011/07/21,00:36:32,00020740,00007426,00000023, 28.3
2011/07/21,00:36:37,00020745,00007428,00000023, 28.4
2011/07/21,00:36:42,00020750,00007428,00000023, 28.4
2011/07/21,00:36:47,00020755,00007430,00000024, 28.4
2011/07/21,00:36:52,00020760,00007431,00000024, 28.3
2011/07/21,00:36:57,00020765,00007433,00000024, 28.2